Location: Bucquoy
(50.1391°N, 2.7097°E)
Time: 02:18:30
(UTC+00:00)

ADEOS Rocket - Pass Details

Date: 06 May 2021
Orbit: 858 x 1307 km, 98.7° (Epoch: 24 June)

Event Time Altitude Azimuth Distance (km) Brightness Sun altitude
Exits shadow 02:22:18 - 168° (SSE) 3,843 5.7 -14.9°
Reaches altitude 10° 02:24:22 10° 169° (S) 3,096 5.2 -14.7°
Maximum altitude 02:31:36 79° 256° (WSW) 1,282 3.5 -14.0°
Drops below altitude 10° 02:39:23 10° 343° (NNW) 3,326 6.2 -13.1°
Sets 02:42:10 0° 345° (NNW) 4,311 6.8 -12.8°
